Jamestown, NY

7:37 PM EST on November 21, 2019 (GMT -0500)
Chautauqua County-Jamestown

Weather History for KJHW - October, 2019

Change the Weather History Date:

Monday, October 21, 2019

  Actual Average Record
Temperature  
Mean Temperature 55 °F -  
Max Temperature 68 °F 55 °F 75 °F (1979)
Min Temperature 42 °F 34 °F 24 °F (1986)
Degree Days  
Heating Degree Days 10    
Growing Degree Days 5 (Base 50)    
Moisture  
Dew Point 43 °F    
Average Humidity 74    
Maximum Humidity 100    
Minimum Humidity 37    
Precipitation  
Precipitation 0.00 in - - ()
Sea Level Pressure  
Sea Level Pressure 30.02 in    
Wind  
Wind Speed 4 mph (SSE)    
Max Wind Speed 14 mph    
Max Gust Speed 22 mph    
Visibility 7 miles    
Events Fog    
Averages and records for this station are not official NWS values.
T = Trace of Precipitation, MM = Missing Value Source: NWS Daily Summary

Daily Weather History Graph

Daily Weather History Graph

Search for Another Location

Airport or City:

Astronomy

Oct. 21, 2019 Rise Set
Actual Time 7:36 AM EDT 6:26 PM EDT
Civil Twilight 7:07 AM EDT 6:54 PM EDT
Nautical Twilight 6:35 AM EDT 7:27 PM EDT
Astronomical Twilight 6:02 AM EDT 7:59 PM EDT
Moon No Moon Rise 2:56 PM EDT (10/21)
Length of Visible Light 11h 46m
Length of Day
10h 49m
Waning Gibbous, 48% of the Moon is Illuminated
Oct 21
Waning Gibbous
Oct 27
New
Nov 4
First Quarter
Nov 12
Full
Nov 19
Last Quarter

Hourly Weather History & Observations

Time (EDT) Temp. Windchill Dew Point Humidity Pressure Visibility Wind Dir Wind Speed Gust Speed Precip Events Conditions
12:56 AM 48.0 °F - 45.0 °F 89% 30.04 in 10.0 mi Calm Calm - N/A   Clear
1:56 AM 48.0 °F - 45.0 °F 89% 30.04 in 10.0 mi Calm Calm - N/A   Clear
2:56 AM 46.0 °F 43.9 °F 44.1 °F 93% 30.06 in 10.0 mi South 4.6 mph - N/A   Clear
3:56 AM 45.0 °F 41.8 °F 44.1 °F 97% 30.06 in 10.0 mi South 5.8 mph - N/A   Clear
4:56 AM 44.1 °F 42.5 °F 44.1 °F 100% 30.07 in 10.0 mi South 3.5 mph - N/A   Clear
5:56 AM 45.0 °F - 44.1 °F 97% 30.05 in 10.0 mi Calm Calm - N/A   Clear
6:12 AM 44.6 °F - 42.8 °F 93% 30.05 in 1.8 mi Calm Calm - N/A   Clear
6:17 AM 44.6 °F - 42.8 °F 93% 30.05 in 0.8 mi Calm Calm - N/A   Clear
6:27 AM 44.6 °F - 42.8 °F 93% 30.04 in 1.5 mi Calm Calm - N/A   Clear
6:29 AM 44.6 °F - 42.8 °F 93% 30.05 in 3.0 mi Calm Calm - N/A   Clear
6:56 AM 46.0 °F - 45.0 °F 96% 30.08 in 10.0 mi Calm Calm - N/A   Clear
7:33 AM 44.6 °F 43.1 °F 42.8 °F 93% 30.07 in 0.8 mi South 3.5 mph - N/A   Clear
7:38 AM 42.8 °F 40.1 °F 42.8 °F 100% 30.07 in 0.2 mi South 4.6 mph - N/A Fog Fog
7:50 AM 42.8 °F - 42.8 °F 100% 30.07 in 0.8 mi Calm Calm - N/A   Clear
7:51 AM 42.8 °F - 42.8 °F 100% 30.07 in 1.0 mi Calm Calm - N/A   Clear
7:54 AM 42.8 °F - 42.8 °F 100% 30.07 in 2.5 mi Calm Calm - N/A   Clear
7:56 AM 43.0 °F - 43.0 °F 100% 30.11 in 3.0 mi Calm Calm - N/A   Clear
8:56 AM 46.0 °F - 44.1 °F 93% 30.09 in 10.0 mi Calm Calm - N/A   Clear
9:56 AM 54.0 °F - 44.1 °F 69% 30.08 in 10.0 mi SE 9.2 mph - N/A   Clear
10:56 AM 57.0 °F - 43.0 °F 59% 30.07 in 10.0 mi ESE 10.4 mph - N/A   Clear
11:56 AM 60.1 °F - 43.0 °F 53% 30.04 in 10.0 mi ESE 11.5 mph 19.6 mph N/A   Clear
12:56 PM 64.0 °F - 41.0 °F 43% 30.02 in 10.0 mi SE 10.4 mph - N/A   Clear
1:56 PM 66.0 °F - 41.0 °F 40% 29.99 in 10.0 mi South 11.5 mph 18.4 mph N/A   Clear
2:56 PM 68.0 °F - 41.0 °F 37% 29.96 in 10.0 mi SE 13.8 mph 18.4 mph N/A   Clear
3:56 PM 66.9 °F - 39.9 °F 37% 29.94 in 10.0 mi SSE 11.5 mph 16.1 mph N/A   Clear
4:56 PM 66.9 °F - 39.9 °F 37% 29.94 in 8.0 mi SE 12.7 mph 20.7 mph N/A   Clear
5:56 PM 64.0 °F - 41.0 °F 43% 29.94 in 10.0 mi SE 6.9 mph - N/A   Clear
6:56 PM 63.0 °F - 41.0 °F 45% 29.91 in 10.0 mi SE 11.5 mph - N/A   Clear
7:56 PM 61.0 °F - 39.0 °F 44% 29.92 in 10.0 mi SSE 12.7 mph 19.6 mph N/A   Clear
8:56 PM 61.0 °F - 39.9 °F 46% 29.91 in 10.0 mi South 11.5 mph 16.1 mph N/A   Overcast
9:56 PM 60.1 °F - 41.0 °F 49% 29.89 in 10.0 mi SSE 11.5 mph 21.9 mph N/A   Scattered Clouds
10:56 PM 59.0 °F - 44.1 °F 58% 29.89 in 10.0 mi SSE 13.8 mph 19.6 mph N/A   Mostly Cloudy
11:56 PM 57.9 °F - 46.0 °F 65% 29.88 in 10.0 mi South 11.5 mph 18.4 mph N/A   Clear